Regional Weather Roundup
Issued by NWS Cleveland, OH

Home | Current Version | Previous Version | Graphics & Text | Print | Product List | Glossary On
Versions: 1 2 3 4 5 6 7 8 9 10 11 12 13 14 15 16 17 18 19 20 21 22 23 24 25 26 27 28 29 30 31 32 33 34 35 36 37 38 39 40 41 42 43 44 45 46 47 48 49 50
000
ASUS41 KCLE 231310
RWRCLE
OHIO REGIONAL WEATHER ROUNDUP
NATIONAL WEATHER SERVICE WILMINGTON, OH
900 AM EDT THU OCT 23 2014

NOTE: "FAIR" INDICATES FEW OR NO CLOUDS BELOW 12,000 FEET WITH NO
SIGNIFICANT WEATHER AND/OR OBSTRUCTIONS TO VISIBILITY.

OHZ001>008-015>018-024>027-034-035-043-044-231400-
   NORTHWEST OHIO

CITY           SKY/WX    TMP DP  RH WIND       PRES   REMARKS
DEFIANCE       FOG       31  30  96 CALM      30.27R VSB 1
FINDLAY        FOG       35  33  92 W5        30.24S VSB 1/4
TOLEDO EXPRESS PTSUNNY   35  34  96 CALM      30.25R FOG
TOLEDO METCALF SUNNY     37  35  92 W5        30.25S FOG
LIMA           FOG       34  33  96 CALM      30.25R VSB<1/4
$$

OHZ009>014-019>023-028>033-038-089-231400-
   NORTHEAST OHIO

CITY           SKY/WX    TMP DP  RH WIND       PRES   REMARKS
CLE-HOPKINS    MOSUNNY   46  44  93 W5        30.23R
CLE-LAKEFRONT  MOSUNNY   51  46  83 N8        30.20R
CUY CO. ARPT   PTSUNNY   52  48  87 N7        30.20S
LORAIN-ELYRIA  SUNNY     46  44  93 NW5       30.22S
ASHTABULA      SUNNY     45  43  93 NW3       30.19R
AKRON-CANTON   PTSUNNY   47  44  90 NW9       30.19R FOG
WOOSTER        SUNNY     48  43  82 NW7       30.21S
MANSFIELD      CLOUDY    43  42  97 NW8       30.22R FOG
YOUNGSTOWN     MOSUNNY   45  43  93 NW6       30.16F
$$

OHZ042-051>053-060>062-070>072-077>081-231400-
  SOUTHWEST OHIO

CITY           SKY/WX    TMP DP  RH WIND       PRES   REMARKS
CINC-COVINGTON SUNNY     44  39  82 CALM      30.25S
CINC-LUNKEN    SUNNY     40  39  97 NE3       30.28R
HAMILTON       SUNNY     37  36  96 CALM      30.27S FOG
DAYTON         FOG       38  37  97 CALM      30.26R VSB 1/2
WRIGHT-PAT AFB SUNNY     39  38  95 CALM      30.26R
DAYTON GENERAL SUNNY     40  38  93 NE3       30.24S FOG
WILMINGTON     SUNNY     42  38  85 N7        30.24S FOG
$$

OHZ036-037-039>041-045>050-054>059-063>069-073>076-082>088-231400-
  CENTRAL AND SOUTHEAST OHIO

CITY           SKY/WX    TMP DP  RH WIND       PRES   REMARKS
COLUMBUS       FOG       42  40  92 N7        30.23R VSB 1
OSU AIRPORT    SUNNY     41  39  93 N3        30.24R FOG
BOLTON FIELD   SUNNY     39  39 100 NW3       30.24R FOG
RICKENBACK AFB SUNNY     40  38  95 CALM      30.24R FOG
NEWARK         CLOUDY    43  40  89 N5        30.24R FOG
MARION         FOG       38  37  97 CALM      30.24R VSB<1/4
LANCASTER      CLOUDY    43  41  93 N5        30.24R FOG
ZANESVILLE     MOSUNNY   44  41  89 NW6       30.22R
NEW PHILLY     CLOUDY    47  44  90 NW7       30.20S
$$



USA.gov is the U.S. government's official web portal to all federal, state and local government web resources and services.